This is the latest recevied weather packets stored in our database for station/object vk4zu-13. If no packets are shown the sender has not sent any weather packets the latest 1 day(s).
| Time | Temp. | Humidity | Pressure | Rain* | Wind** | Luminosity | Snow |
|---|---|---|---|---|---|---|---|
| 1778027673 | 25.56° C | 67% | 1018 hPa | 0 mm | - | 367 W/m² | - |
| 1778027601 | 26.11° C | 66% | 1018.2 hPa | 0 mm | - | 341 W/m² | - |
| 1778027529 | 26.11° C | 67% | 1018.2 hPa | 0 mm | - | 527 W/m² | - |
| 1778027460 | 26.11° C | 67% | 1018.1 hPa | 0 mm | - | 434 W/m² | - |
| 1778027389 | 26.11° C | 69% | 1018.2 hPa | 0 mm | - | 374 W/m² | - |
| 1778027321 | 25.56° C | 69% | 1018.2 hPa | 0 mm | - | 374 W/m² | - |
| 1778027251 | 25.56° C | 70% | 1018.1 hPa | 0 mm | - | 418 W/m² | - |
| 1778027181 | 25.56° C | 69% | 1018.2 hPa | 0 mm | - | 482 W/m² | - |
| 1778027112 | 25.56° C | 68% | 1018.2 hPa | 0 mm | - | 779 W/m² | - |
| 1778026841 | 25° C | 70% | 1018.3 hPa | 0 mm | - | 603 W/m² | - |
| 1778026780 | 25° C | 69% | 1018.3 hPa | 0 mm | - | 239 W/m² | - |
| 1778026713 | 25° C | 69% | 1018.2 hPa | 0 mm | - | 202 W/m² | - |
| 1778026649 | 25° C | 70% | 1018.3 hPa | 0 mm | - | 202 W/m² | - |
| 1778026458 | 25° C | 71% | 1018.2 hPa | 0 mm | - | 169 W/m² | - |
| 1778026318 | 25° C | 69% | 1018.2 hPa | 0 mm | - | 188 W/m² | - |
| 1778026195 | 25° C | 70% | 1018.2 hPa | 0 mm | - | 188 W/m² | - |
| 1778026141 | 25° C | 70% | 1018.3 hPa | 0 mm | - | 202 W/m² | - |
| 1778025949 | 25.56° C | 69% | 1018.3 hPa | 0 mm | - | 264 W/m² | - |
| 1778025689 | 25.56° C | 69% | 1018.4 hPa | 0 mm | - | 341 W/m² | - |
| 1778025619 | 25.56° C | 68% | 1018.4 hPa | 0 mm | - | 737 W/m² | - |
| 1778024990 | 26.11° C | 68% | 1018.4 hPa | 0 mm | - | 689 W/m² | - |
| 1778024686 | 25.56° C | 68% | 1018.6 hPa | 0 mm | - | 661 W/m² | - |
| 1778024128 | 25.56° C | 72% | 1018.5 hPa | 0 mm | - | 694 W/m² | - |
| 1778023671 | 25° C | 76% | 1018.4 hPa | 0 mm | - | 190 W/m² | - |
| 1778023410 | 24.44° C | 75% | 1018.4 hPa | 0 mm | - | 102 W/m² | - |
* Rain latest hour (hover to see other rain measurements)
** Current wind speed in m/s (hover to see current wind gust speed)